Stations météo

réclame
Mon MeteoGroup
Cannes, France (7684): Température de l'air & dewpoint: 13.07.2019 12:00:00 - 19.07.2019 12:00:00 (CEST)Cannes, France (7684): Température de l'air 5cm: 13.07.2019 12:00:00 - 19.07.2019 12:00:00 (CEST)Cannes, France (7684): Vitesse du vent & gusts: 13.07.2019 12:00:00 - 19.07.2019 12:00:00 (CEST)Cannes, France (7684): Direction du vent: 13.07.2019 12:00:00 - 19.07.2019 12:00:00 (CEST)Cannes, France (7684): reduced air pressure: 13.07.2019 12:00:00 - 19.07.2019 12:00:00 (CEST)Cannes, France (7684): visibility: 13.07.2019 12:00:00 - 19.07.2019 12:00:00 (CEST)Cannes, France (7684): Quantités de précipitations: 13.07.2019 12:00:00 - 19.07.2019 12:00:00 (CEST)
Date & Time tt [°C] td [°C] tt 5cm [°C] ff [km/h] ff [knt] fx [km/h] fx [knt] dd ppp [hPa] vv [km] rr [mm]
19.07.2019 12:00:00 26,6 21,1 34,5 12 7 23 13 SSE 1016,3 25 0,0
19.07.2019 11:00:00 26,7 21,2 34,5 12 7 22 12 S 1016,1 20 0,0
19.07.2019 10:00:00 25,7 19,8 32,8 8 5 16 9 S 1015,8 20 0,0
19.07.2019 09:00:00 24,6 19,7 27,4 4 2 11 6 NNW 1015,6 20 0,0
19.07.2019 08:00:00 21,9 17,9 21,3 8 4 13 7 N 1015,3 27 0,0
19.07.2019 07:00:00 19,8 17,2 18,4 7 4 14 8 N 1014,9 20 0,0
19.07.2019 06:00:00 19,3 17,1 18,5 8 4 14 7 N 1014,7 20 0,0
19.07.2019 05:00:00 19,7 17,5 18,5 7 4 13 7 N 1014,7 20 0,0
19.07.2019 04:00:00 19,4 17,5 18,5 7 4 12 7 N 1014,6 19 0,0
19.07.2019 03:00:00 19,8 17,6 18,7 6 3 11 6 N 1014,6 20 0,0
19.07.2019 02:00:00 20,2 17,6 18,8 6 3 10 5 N 1014,3 22 0,0
19.07.2019 01:00:00 20,7 17,9 19,4 5 3 10 5 N 1014,1 24 0,0
19.07.2019 00:00:00 21,8 18,0 18,9 3 2 6 3 N 1013,8 29 0,0
18.07.2019 23:00:00 22,9 18,7 19,2 0 0 5 3 N 1013,8 30 0,0
18.07.2019 22:00:00 23,6 18,9 21,3 3 2 6 4 SSE 1013,3 19 0,0
18.07.2019 21:00:00 24,4 19,2 24,0 6 3 13 7 S 1012,7 35 0,0
18.07.2019 20:00:00 24,9 19,5 26,2 8 4 13 7 S 1012,5 33 0,0
18.07.2019 19:00:00 25,6 19,7 27,4 9 5 21 12 S 1012,1 37 0,0
18.07.2019 18:00:00 26,4 20,3 30,7 11 6 24 13 SSE 1012,2 25 0,0
18.07.2019 17:00:00 26,3 20,2 30,5 16 9 29 16 S 1012,3 20 0,0
18.07.2019 16:00:00 27,4 20,5 31,0 14 7 23 13 SE 1012,1 22 0,0
18.07.2019 15:00:00 27,2 20,8 34,2 17 9 29 15 SSE 1012,1 20 0,0
18.07.2019 14:00:00 27,2 19,8 31,0 16 8 29 16 SSE 1012,2 20 0,0
18.07.2019 13:00:00 27,5 20,1 34,0 18 10 27 15 SSE 1012,0 19 0,0
18.07.2019 12:00:00 27,2 19,0 29,9 13 7 23 13 SE 1012,0 20 0,0
18.07.2019 11:00:00 26,8 19,2 30,1 8 4 17 9 SE 1011,7 43 0,0
18.07.2019 10:00:00 26,6 19,5 30,1 3 2 13 7 NNE 1011,6 35 0,0
18.07.2019 09:00:00 25,2 19,3 28,2 5 3 11 6 NNE 1011,5 20 0,0
18.07.2019 08:00:00 22,4 18,4 21,2 5 3 11 6 NNE 1011,2 19 0,0
18.07.2019 07:00:00 20,2 17,4 18,8 5 3 11 6 NNE 1010,9 29 0,0
18.07.2019 06:00:00 20,0 17,6 18,9 5 3 10 6 N 1010,8 27 0,0
18.07.2019 05:00:00 20,4 18,2 19,9 6 3 9 5 N 1010,7 30 0,0
18.07.2019 04:00:00 20,5 18,3 19,5 4 2 11 6 NNE 1010,5 30 0,0
18.07.2019 03:00:00 20,0 18,3 19,0 6 4 10 6 N 1010,4 26 0,0
18.07.2019 02:00:00 20,4 18,5 19,6 6 3 11 6 N 1010,7 27 0,0
18.07.2019 01:00:00 21,0 18,8 19,6 5 3 9 5 N 1011,0 28 0,0
18.07.2019 00:00:00 21,9 19,5 20,5 3 2 7 4 N 1011,4 29 0,0
17.07.2019 23:00:00 22,9 19,7 21,3 4 2 7 4 NNW 1011,6 37 0,0
17.07.2019 22:00:00 24,1 20,2 22,9 3 2 10 5 SE 1011,7 47 0,0
17.07.2019 21:00:00 24,5 20,4 24,1 7 4 14 8 SE 1011,2 44 0,0
17.07.2019 20:00:00 25,3 19,4 27,1 8 5 16 9 SSE 1011,1 59 0,0
17.07.2019 19:00:00 25,9 19,5 28,5 10 5 20 11 S 1011,3 60 0,0
17.07.2019 18:00:00 26,2 20,1 31,8 12 6 21 11 S 1011,6 37 0,0
17.07.2019 17:00:00 26,7 20,1 33,7 11 6 26 14 SSE 1012,0 30 0,0
17.07.2019 16:00:00 26,9 19,8 33,9 16 9 28 15 SSE 1012,1 32 0,0
17.07.2019 15:00:00 27,5 16,5 35,3 14 7 26 14 SSE 1012,3 36 0,0
17.07.2019 14:00:00 28,0 16,3 33,3 13 7 24 13 SSE 1012,7 41 0,0
17.07.2019 13:00:00 26,8 19,2 33,1 14 8 25 14 SSE 1013,0 19 0,0
17.07.2019 12:00:00 26,7 19,6 33,3 14 7 27 15 SE 1013,2 49 0,0
17.07.2019 11:00:00 27,3 18,6 34,8 12 7 22 12 SE 1013,3 60 0,0
17.07.2019 10:00:00 27,3 15,0 33,7 4 2 14 8 NNE 1013,5 55 0,0
17.07.2019 09:00:00 25,0 14,5 27,4 4 2 11 6 NNW 1013,5 44 0,0
17.07.2019 08:00:00 20,8 14,2 20,8 7 4 14 8 N 1013,3 54 0,0
17.07.2019 07:00:00 18,1 13,6 16,4 6 3 16 9 N 1013,3 44 0,0
17.07.2019 06:00:00 17,8 13,5 16,2 6 3 13 7 N 1013,0 60 0,0
17.07.2019 05:00:00 17,7 13,6 16,2 6 3 10 6 N 1012,8 60 0,0
17.07.2019 04:00:00 18,1 13,4 16,2 6 3 11 6 N 1012,8 60 0,0
17.07.2019 03:00:00 18,6 13,5 17,0 6 3 11 6 N 1013,1 60 0,0
17.07.2019 02:00:00 19,0 13,6 17,6 6 3 13 7 N 1013,5 60 0,0
17.07.2019 01:00:00 20,0 13,9 18,3 6 4 10 6 N 1013,7 60 0,0
17.07.2019 00:00:00 20,7 14,1 18,8 6 3 9 5 N 1013,6 60 0,0
16.07.2019 23:00:00 22,0 14,4 19,6 4 2 9 5 N 1013,6 60 0,0
16.07.2019 22:00:00 23,4 14,1 18,7 4 2 6 4 N 1013,4 60 0,0
16.07.2019 21:00:00 25,7 15,4 23,9 5 3 14 8 SSE 1013,1 60 0,0
16.07.2019 20:00:00 27,7 13,2 29,1 10 6 19 11 S 1013,2 56 0,0
16.07.2019 19:00:00 28,7 12,6 33,4 13 7 22 12 S 1013,4 34 0,0
16.07.2019 18:00:00 28,3 14,2 33,3 17 9 28 15 S 1013,7 21 0,0
16.07.2019 17:00:00 28,7 13,8 34,8 19 10 31 17 S 1014,0 21 0,0
16.07.2019 16:00:00 28,6 14,4 35,2 23 12 36 19 S 1014,3 19 0,0
16.07.2019 15:00:00 28,8 13,5 35,3 27 14 36 20 S 1014,2 23 0,0
16.07.2019 14:00:00 28,4 13,1 35,0 26 14 36 19 S 1014,1 29 0,0
16.07.2019 13:00:00 27,9 13,8 35,2 19 10 28 15 SSE 1014,3 38 0,0
16.07.2019 12:00:00 28,0 12,4 34,9 16 8 27 14 SSE 1014,3 50 0,0
16.07.2019 11:00:00 27,7 11,3 34,9 12 6 18 10 S 1014,1 60 0,0
16.07.2019 10:00:00 27,2 10,4 32,0 5 3 16 8 SW 1014,2 52 0,0
16.07.2019 09:00:00 23,0 12,9 26,1 5 3 12 6 NNW 1014,3 49 0,0
16.07.2019 08:00:00 19,6 12,4 19,1 7 4 14 8 N 1014,0 60 0,0
16.07.2019 07:00:00 16,5 12,5 14,3 6 4 14 8 N 1013,5 60 0,0
16.07.2019 06:00:00 15,7 12,4 14,3 6 3 14 7 N 1013,1 60 0,0
16.07.2019 05:00:00 16,4 13,1 14,7 9 5 14 8 N 1012,7 60 0,0
16.07.2019 04:00:00 16,6 13,9 14,9 8 5 13 7 N 1012,8 60 0,0
16.07.2019 03:00:00 16,6 14,1 15,2 6 3 14 8 N 1013,1 60 0,0
16.07.2019 02:00:00 17,2 15,0 15,5 5 3 13 7 N 1013,0 60 0,0
16.07.2019 01:00:00 17,7 15,7 15,9 5 3 10 5 N 1012,7 60 0,0
16.07.2019 00:00:00 18,3 15,5 16,2 4 2 8 4 N 1012,1 60 0,0
15.07.2019 23:00:00 19,5 15,6 16,6 2 1 8 4 N 1011,7 60 0,0
15.07.2019 22:00:00 20,8 15,1 18,2 5 3 9 5 N 1011,0 60 0,0
15.07.2019 21:00:00 22,5 14,3 20,7 4 2 10 5 W 1010,3 60 0,0
15.07.2019 20:00:00 24,3 14,4 24,8 10 5 17 9 SSE 1009,6 60 0,0
15.07.2019 19:00:00 24,3 15,8 24,7 8 4 16 9 SW 1009,0 60 0,0
15.07.2019 18:00:00 24,5 16,5 25,9 8 4 16 8 WSW 1008,4 60 0,0
15.07.2019 17:00:00 24,9 14,4 25,6 4 2 17 9 W 1008,1 60 0,0
15.07.2019 16:00:00 23,5 16,3 25,6 7 4 18 10 WSW 1008,0 60 0,0
15.07.2019 15:00:00 21,8 16,5 20,8 5 3 17 9 WNW 1007,9 57 0,0
15.07.2019 14:00:00 19,8 17,9 18,2 8 4 15 8 S 1006,5 11 3,2
15.07.2019 13:00:00 20,0 14,8 17,7 9 5 32 17 WSW 1006,5 19 0,0
15.07.2019 12:00:00 23,9 13,1 23,8 9 5 20 11 ENE 1005,5 11 0,0
15.07.2019 11:00:00 25,6 15,3 28,2 9 5 23 13 ENE 1005,0 58 0,0
15.07.2019 10:00:00 25,1 15,1 29,2 4 2 11 6 WNW 1005,1 46 0,0
15.07.2019 09:00:00 23,9 16,4 23,6 5 3 11 6 N 1005,3 43 0,0
15.07.2019 08:00:00 22,0 15,1 21,1 6 4 11 6 N 1005,2 20 0,0
15.07.2019 07:00:00 20,5 14,8 19,7 6 3 16 8 NNE 1005,4 54 0,0
15.07.2019 06:00:00 20,0 15,0 18,7 8 4 13 7 N 1005,5 58 0,0
15.07.2019 05:00:00 20,3 15,1 19,5 6 3 13 7 N 1005,9 60 0,0
15.07.2019 04:00:00 20,2 15,0 18,3 7 4 13 7 N 1006,1 60 0,0
15.07.2019 03:00:00 20,5 15,3 17,4 3 2 9 5 NNE 1006,3 60 0,0
15.07.2019 02:00:00 22,0 15,4 17,5 0 0 7 4 N 1006,7 60 0,0
15.07.2019 01:00:00 23,7 14,9 21,4 6 4 9 5 NNE 1007,1 60 0,0
15.07.2019 00:00:00 24,9 15,5 23,8 0 0 8 4 N 1007,5 60 0,0
14.07.2019 23:00:00 25,4 15,4 24,3 4 2 8 5 N 1007,9 60 0,0
14.07.2019 22:00:00 26,3 16,0 25,4 4 2 12 6 NE 1007,6 60 0,0
14.07.2019 21:00:00 26,5 14,6 25,7 4 2 8 4 SE 1007,5 60 0,0
14.07.2019 20:00:00 27,2 14,2 27,5 5 3 19 11 NE 1007,6 60 0,0
14.07.2019 19:00:00 27,7 16,9 28,6 8 4 25 14 ENE 1007,5 60 0,0
14.07.2019 18:00:00 28,9 17,1 33,6 14 8 28 15 E 1007,7 28 0,0
14.07.2019 17:00:00 28,5 20,0 35,1 15 8 29 15 SE 1008,2 26 0,0
14.07.2019 16:00:00 29,0 21,0 34,2 15 8 32 17 SE 1008,8 28 0,0
14.07.2019 15:00:00 29,0 20,4 32,7 13 7 30 16 ESE 1008,9 29 0,0
14.07.2019 14:00:00 29,9 19,9 33,1 11 6 32 18 E 1008,8 32 0,0
14.07.2019 13:00:00 29,8 20,9 36,0 15 8 29 16 SSE 1009,5 20 0,0
14.07.2019 12:00:00 28,8 20,3 33,1 16 9 30 16 SE 1009,7 41 0,0
14.07.2019 11:00:00 28,5 18,9 31,2 14 8 30 16 E 1010,1 47 0,0
14.07.2019 10:00:00 27,7 20,0 33,7 16 9 32 18 ENE 1009,9 52 0,0
14.07.2019 09:00:00 27,8 20,6 27,1 7 4 16 8 ENE 1009,8 48 0,0
14.07.2019 08:00:00 21,3 13,5 18,9 9 5 17 9 NNE 1009,7 60 0,0
14.07.2019 07:00:00 18,9 12,2 17,3 9 5 17 9 N 1009,6 59 0,0
14.07.2019 06:00:00 18,6 12,3 16,8 9 5 16 9 N 1009,4 60 0,0
14.07.2019 05:00:00 18,9 12,6 17,2 6 4 14 8 N 1009,1 60 0,0
14.07.2019 04:00:00 19,6 13,1 17,5 8 4 14 8 N 1009,3 60 0,0
14.07.2019 03:00:00 19,5 13,4 17,7 6 3 13 7 N 1009,6 60 0,0
14.07.2019 02:00:00 20,2 14,3 18,8 7 4 16 9 N 1009,8 59 0,0
14.07.2019 01:00:00 21,2 15,3 19,3 8 4 14 7 N 1010,3 58 0,0
14.07.2019 00:00:00 22,4 16,0 19,7 5 3 14 7 NNE 1010,1 59 0,0
13.07.2019 23:00:00 22,7 16,5 20,6 5 3 10 6 N 1010,2 54 0,0
13.07.2019 22:00:00 24,2 18,2 19,3 3 2 9 5 N 1009,7 19 0,0
13.07.2019 21:00:00 26,2 20,1 23,5 3 2 11 6 S 1009,0 57 0,0
13.07.2019 20:00:00 28,3 19,5 31,3 8 4 14 8 SSE 1008,7 51 0,0
13.07.2019 19:00:00 28,9 21,7 34,2 8 4 16 8 SSE 1008,5 18 0,0
13.07.2019 18:00:00 28,9 21,7 35,2 10 5 22 12 SE 1008,5 36 0,0
13.07.2019 17:00:00 28,8 21,1 36,6 12 6 21 11 SSE 1008,7 23 0,0
13.07.2019 16:00:00 29,8 19,2 36,9 10 5 23 12 SSE 1009,0 22 0,0
13.07.2019 15:00:00 28,5 20,5 37,3 16 9 25 14 S 1009,2 22 0,0
13.07.2019 14:00:00 28,7 21,0 37,4 16 8 23 13 S 1009,5 20 0,0
13.07.2019 13:00:00 28,5 20,2 36,7 12 6 24 13 SSE 1009,8 20 0,0
13.07.2019 12:00:00 28,1 21,1 35,4 12 7 22 12 SE 1009,9 21 0,0

tt = Température de l'air
td = dewpoint
tt 5cm = Température de l'air 5cm
ff = Vitesse du vent
fx = gusts
dd = Direction du vent
ppp = reduced air pressure
vv = visibility
rr = Quantités de précipitations

stations d'obs. à proximité